Вернуться в каталог

STARLINK-35335

АктивенСвязьVLEO
NORAD 66180·PAYLOAD·🇺🇸 United States

Запущен Oct 26, 2025 с Cape Canaveral Space Force Station

Loading…

Ближайшие Пролёты (ближайшие 24 часа)

TLE

СвежийSource: CelesTrak SupGP

Эпоха: Sep 14, 2026, 20:43 UTC

1 66180C 25243D   26257.86368056 -.00007256  00000+0 -21443-3 0  2576
2 66180  53.1566  84.2205 0001226  85.7274 148.2922 15.34388277    11

Отслеживайте STARLINK-35335 в реальном времени с AllMySat

Download on the App Store